Location: Lugrin
(46.4033°N, 6.6674°E)
Time: 11:28:44
(UTC+00:00)

Cosmos 1174 - Pass Details

Date: 18 September 2020
Orbit: 362 x 1155 km, 66.1° (Epoch: 24 October)

Event Time Altitude Azimuth Distance (km) Brightness Sun altitude
Rises 19:22:19 0° 202° (SSW) 2,907 7.5 -18.3°
Reaches altitude 10° 19:24:22 10° 199° (SSW) 2,114 6.7 -18.6°
Maximum altitude 19:29:11 65° 119° (ESE) 879 4.5 -19.4°
Drops below altitude 10° 19:35:18 10° 39° (NE) 2,668 7.2 -20.3°
Sets 19:38:10 0° 37° (NE) 3,733 7.9 -20.8°
